Valparaiso, FL

9:53 AM CDT on August 18, 2017 (GMT -0500)
Eglin Air Force Base

Weather History for KVPS - December, 2013

Change the Weather History Date:

Thursday, December 26, 2013

  Actual Average Record
Temperature  
Mean Temperature 50 °F -  
Max Temperature 59 °F 59 °F 78 °F (1974)
Min Temperature 40 °F 37 °F 10 °F (1985)
Degree Days  
Heating Degree Days 16    
Moisture  
Dew Point 41 °F    
Average Humidity 72    
Maximum Humidity 93    
Minimum Humidity 61    
Precipitation  
Precipitation 0.00 in - - ()
Sea Level Pressure  
Sea Level Pressure 30.30 in    
Wind  
Wind Speed 9 mph (NNE)    
Max Wind Speed 14 mph    
Max Gust Speed -    
Visibility 10 miles    
Events      
Averages and records for this station are not official NWS values.
T = Trace of Precipitation, MM = Missing Value Source: NWS Daily Summary

Daily Weather History Graph

Daily Weather History Graph

Search for Another Location

Airport or City:

Trip Planner

Search our weather history database for the weather conditions in past years. The results will help you decide how hot, cold, wet, or windy it might be!

Date:

Astronomy

Dec. 26, 2013 Rise Set
Actual Time 6:41 AM CST 4:52 PM CST
Civil Twilight 6:14 AM CST 5:19 PM CST
Nautical Twilight 5:44 AM CST 5:49 PM CST
Astronomical Twilight 5:15 AM CST 6:18 PM CST
Moon 12:27 AM CST (12/26) 12:11 PM CST (12/26)
Length of Visible Light 11h 04m
Length of Day
10h 11m
Last Quarter, 38% of the Moon is Illuminated
Dec 26
Last Quarter
Jan 1
New
Jan 7
First Quarter
Jan 15
Full
Jan 23
Last Quarter

Hourly Weather History & Observations

Time (CST) Temp. Windchill Dew Point Humidity Pressure Visibility Wind Dir Wind Speed Gust Speed Precip Events Conditions
12:55 AM 44.6 °F 40.7 °F 38.5 °F 79% 30.31 in 10.0 mi North 6.9 mph - N/A   Overcast
1:55 AM 45.0 °F 40.6 °F 39.7 °F 82% 30.30 in 10.0 mi North 8.1 mph - N/A   Overcast
2:55 AM 45.3 °F 41.6 °F 40.1 °F 82% 30.30 in 10.0 mi North 6.9 mph - N/A   Overcast
3:55 AM 45.3 °F 40.1 °F 39.9 °F 81% 30.29 in 10.0 mi North 10.4 mph - N/A   Overcast
4:55 AM 44.6 °F 39.7 °F 40.1 °F 84% 30.30 in 10.0 mi NNE 9.2 mph - N/A   Mostly Cloudy
5:55 AM 42.1 °F 38.4 °F 39.2 °F 90% 30.31 in 10.0 mi North 5.8 mph - N/A   Mostly Cloudy
6:55 AM 40.6 °F 36.0 °F 38.7 °F 93% 30.32 in 10.0 mi North 6.9 mph - N/A   Scattered Clouds
7:55 AM 43.0 °F 37.2 °F 38.8 °F 85% 30.33 in 10.0 mi North 10.4 mph - N/A   Scattered Clouds
8:55 AM 48.0 °F - 40.1 °F 74% 30.32 in 10.0 mi NNE 10.4 mph - N/A   Scattered Clouds
9:55 AM 54.0 °F - 42.4 °F 65% 30.33 in 10.0 mi NE 13.8 mph - N/A   Mostly Cloudy
10:55 AM 55.4 °F - 43.5 °F 64% 30.32 in 10.0 mi NNE 12.7 mph - N/A   Mostly Cloudy
10:56 AM 58.6 °F - 45.1 °F 61% 30.29 in 10.0 mi NNE 10.4 mph - N/A   Mostly Cloudy
11:55 AM 58.6 °F - 45.1 °F 61% 30.29 in 10.0 mi NNE 13.8 mph - N/A   Mostly Cloudy
12:55 PM 59.7 °F - 46.0 °F 61% 30.26 in 10.0 mi NNE 11.5 mph - N/A   Mostly Cloudy
1:55 PM 59.5 °F - 46.6 °F 62% 30.25 in 10.0 mi NE 9.2 mph - N/A   Overcast
2:55 PM 59.5 °F - 46.4 °F 62% 30.25 in 10.0 mi NNE 10.4 mph - N/A   Overcast
3:55 PM 57.7 °F - 45.3 °F 63% 30.26 in 10.0 mi North 10.4 mph - N/A   Overcast
4:56 PM 53.1 °F - 41.4 °F 64% 30.26 in 10.0 mi North 9.2 mph - N/A   Overcast
5:56 PM 51.3 °F - 40.1 °F 66% 30.28 in 10.0 mi NNE 8.1 mph - N/A   Overcast
6:56 PM 49.8 °F - 39.4 °F 67% 30.29 in 10.0 mi NNE 9.2 mph - N/A   Mostly Cloudy
7:57 PM 48.4 °F - 39.2 °F 71% 30.30 in 10.0 mi NNE 5.8 mph - N/A   Mostly Cloudy
8:57 PM 47.5 °F - 38.7 °F 71% 30.31 in 10.0 mi NNE 5.8 mph - N/A   Mostly Cloudy
9:59 PM 46.6 °F - 38.7 °F 74% 30.30 in 10.0 mi NNE 8.1 mph - N/A   Mostly Cloudy
10:55 PM 46.2 °F 43.3 °F 38.1 °F 73% 30.31 in 10.0 mi NNE 5.8 mph - N/A   Mostly Cloudy
11:59 PM 45.1 °F 41.4 °F 38.1 °F 76% 30.30 in 10.0 mi North 6.9 mph - N/A   Mostly Cloudy